Weather History for Charleston, SC

Change the Weather History Date:

Sunday, March 3, 2013

  Actual Average Record
Temperature  
Mean Temperature 39 °F 55 °F  
Max Temperature 48 °F 67 °F 86 °F (1976)
Min Temperature 30 °F 44 °F 15 °F (1980)
Degree Days  
Heating Degree Days 26 10  
Month to date heating degree days 65 32  
Since 1 July heating degree days 1450 1668  
Cooling Degree Days 0 1  
Month to date cooling degree days 0 1  
Year to date cooling degree days 21 8  
Moisture  
Dew Point 26 °F    
Average Humidity 65    
Maximum Humidity 92    
Minimum Humidity 38    
Precipitation  
Precipitation 0.00 in 0.11 in 1.81 in (2012)
Month to date precipitation 0.00 0.34  
Year to date precipitation 10.82 7.01  
Snow  
Snow 0.00 in 0.00 in - ()
Month to date snowfall 0.0  
Since 1 July snowfall T 0.5  
Snow Depth 0.00 in    
Sea Level Pressure  
Sea Level Pressure 29.97 in    
Wind  
Wind Speed 8 mph (WNW)    
Max Wind Speed 17 mph    
Max Gust Speed 22 mph    
Visibility 10 miles    
Events      
T = Trace of Precipitation, MM = Missing Value Source: NWS Daily Summary

Daily Weather History Graph

Daily Weather History Graph

Search for Another Location

Airport:

Trip Planner

Search our weather history database for the weather conditions in past years. The results will help you decide how hot, cold, wet, or windy it might be!

Date:

Astronomy

Mar. 03, 2013 Rise Set
Actual Time 6:45 AM EST 6:19 PM EST
Civil Twilight 6:20 AM EST 6:43 PM EST
Nautical Twilight 5:52 AM EST 7:12 PM EST
Astronomical Twilight 5:23 AM EST 7:41 PM EST
Moon No Moon Rise 10:20 AM EST (3/3)
Length of Visible Light 12h 23m
Length of Day
11h 33m
Waning Gibbous, 64% of the Moon is Illuminated
Mar 3
Waning Gibbous
Mar 4
Last Quarter
Mar 11
New
Mar 19
First Quarter
Mar 27
Full

Hourly Weather History & Observations

Time (EST) Temp. Windchill Dew Point Humidity Pressure Visibility Wind Dir Wind Speed Gust Speed Precip Events Conditions
12:56 AM 37.9 °F 32.7 °F 32.0 °F 79% 29.94 in 10.0 mi West 6.9 mph - N/A   Scattered Clouds
1:56 AM 37.9 °F 32.7 °F 30.0 °F 73% 29.93 in 10.0 mi WNW 6.9 mph - N/A   Mostly Cloudy
2:56 AM 37.9 °F 32.7 °F 28.0 °F 68% 29.92 in 10.0 mi WNW 6.9 mph - N/A   Mostly Cloudy
3:56 AM 36.0 °F 30.3 °F 27.0 °F 70% 29.92 in 10.0 mi WNW 6.9 mph - N/A   Clear
4:56 AM 35.1 °F 30.1 °F 28.0 °F 76% 29.94 in 10.0 mi WNW 5.8 mph - N/A   Clear
5:56 AM 30.9 °F 25.2 °F 27.0 °F 85% 29.94 in 10.0 mi NW 5.8 mph - N/A   Clear
6:56 AM 30.9 °F 26.2 °F 28.0 °F 89% 29.96 in 10.0 mi NNW 4.6 mph - N/A   Partly Cloudy
7:56 AM 36.0 °F 31.1 °F 30.0 °F 79% 29.98 in 10.0 mi NNW 5.8 mph - N/A   Scattered Clouds
8:56 AM 41.0 °F 34.3 °F 26.1 °F 55% 29.98 in 10.0 mi North 11.5 mph - N/A   Partly Cloudy
9:56 AM 43.0 °F 38.8 °F 23.0 °F 45% 29.99 in 10.0 mi North 6.9 mph - N/A   Scattered Clouds
10:56 AM 46.0 °F 41.0 °F 23.0 °F 40% 29.98 in 10.0 mi North 10.4 mph - N/A   Partly Cloudy
11:56 AM 46.0 °F 43.9 °F 24.1 °F 42% 29.97 in 10.0 mi Variable 4.6 mph - N/A   Mostly Cloudy
12:56 PM 46.9 °F - 23.0 °F 39% 29.96 in 10.0 mi West 9.2 mph - N/A   Mostly Cloudy
1:56 PM 46.9 °F - 24.1 °F 41% 29.94 in 10.0 mi WNW 9.2 mph - N/A   Mostly Cloudy
2:56 PM 46.9 °F - 24.1 °F 41% 29.93 in 10.0 mi West 11.5 mph - N/A   Mostly Cloudy
3:56 PM 46.0 °F 40.6 °F 23.0 °F 40% 29.93 in 10.0 mi WNW 11.5 mph - N/A   Mostly Cloudy
4:56 PM 45.0 °F 39.3 °F 23.0 °F 42% 29.94 in 10.0 mi West 11.5 mph - N/A   Overcast
5:56 PM 43.0 °F 37.7 °F 25.0 °F 49% 29.97 in 10.0 mi West 9.2 mph - N/A   Mostly Cloudy
6:56 PM 41.0 °F 37.1 °F 24.1 °F 51% 29.99 in 10.0 mi WNW 5.8 mph - N/A   Clear
7:56 PM 39.0 °F 35.7 °F 24.1 °F 55% 30.01 in 10.0 mi WSW 4.6 mph - N/A   Clear
8:56 PM 37.0 °F 31.6 °F 25.0 °F 62% 30.03 in 10.0 mi WSW 6.9 mph - N/A   Clear
9:56 PM 37.0 °F 31.0 °F 25.0 °F 62% 30.04 in 10.0 mi WSW 8.1 mph - N/A   Clear
10:56 PM 36.0 °F 30.3 °F 24.1 °F 62% 30.04 in 10.0 mi WSW 6.9 mph - N/A   Clear
11:56 PM 35.1 °F 27.9 °F 24.1 °F 64% 30.04 in 10.0 mi West 9.2 mph - N/A   Clear